Home > Weather > Whitehorse > Past weeks

Flag for Canada Past Weather in Whitehorse, Yukon, Canada — Yesterday and Last 2 Weeks

Now
55 °F

Partly cloudy.


Feels Like: 52 °F
Forecast: 47 / 66 °F
Wind: 14 mph from Southeast

Location: Whitehorse

Current Time: Jul 25, 2016 at 3:15:56 AM

Latest Report: Jul 25, 2016 at 2:00 AM


Visibility: 15 mi

Pressure: 29.89 "Hg (27.69 "Hg at 640m altitude)

Humidity: 67%

Dew Point: 45 °F

Location of WhitehorseLocation

Past Weather in Whitehorse — Graph

°F

Whitehorse Temperature Yesterday

Maximum temperature yesterday: 64 °F (at 3:00 PM)
Minimum temperature yesterday: 50 °F (at 8:00 AM)
Average temperature yesterday: 57 °F

High & Low Weather Summary for the Past Weeks

 TemperatureHumidityPressure
High79 °F (Jul 16, 4:00 PM)100% (Jul 15, 2:00 AM)30.34 "Hg (Jul 15, 2:00 AM)
Low50 °F (Jul 10, 6:00 AM)36% (Jul 10, 6:00 PM)29.59 "Hg (Jul 23, 5:00 PM)
Average61 °F70%30.00 "Hg
* Reported Jul 10 2:00 AM — Jul 25 2:00 AM, Whitehorse, Weather by CustomWeather, © 2016

Note: Actual official high and low records may vary slightly from our data, if they occured in-between our weather recording intervals... More about our weather records

Advertising

Whitehorse Weather History for the Previous 24 Hours

Scroll right to see more
 ConditionsComfort  
Time TempWeatherWind HumidityBarometerVisibility
2:00 AM
Mon, Jul 25
55 °FPartly cloudy.14 mph67%29.89 "Hg15 mi
1:00 AM55 °FPartly cloudy.12 mph67%29.89 "Hg15 mi
12:00 AM55 °FPartly cloudy.13 mph63%29.87 "Hg15 mi
11:00 PM
Sun, Jul 24
57 °FBroken clouds.12 mph59%29.87 "Hg40 mi
10:00 PM59 °FMostly cloudy.12 mph59%29.86 "Hg40 mi
9:00 PM59 °FCloudy.12 mph59%29.84 "Hg40 mi
8:00 PM63 °FPartly sunny.13 mph45%29.83 "Hg40 mi
7:00 PM63 °FMostly cloudy.14 mph45%29.82 "Hg40 mi
6:00 PM63 °FMostly cloudy.13 mph45%29.82 "Hg40 mi
5:00 PM64 °FMostly cloudy.18 mph43%29.82 "Hg40 mi
4:00 PM64 °FPartly sunny.12 mph43%29.81 "Hg40 mi
3:00 PM64 °FMostly cloudy.14 mph43%29.80 "Hg40 mi
2:00 PM63 °FPartly sunny.10 mph52%29.80 "Hg40 mi
1:00 PM63 °FPartly sunny.6 mph52%29.79 "Hg40 mi
12:00 PM61 °FPartly sunny.7 mph55%29.79 "Hg40 mi
11:00 AM55 °FBroken clouds.6 mph67%29.80 "Hg40 mi
10:00 AM55 °FPartly sunny.7 mph67%29.78 "Hg40 mi
9:00 AM54 °FPartly sunny.No wind77%29.77 "Hg40 mi
8:00 AM50 °FPartly sunny.3 mph88%29.76 "Hg40 mi
7:00 AM52 °FOvercast.3 mph77%29.75 "Hg30 mi
6:08 AM52 °FOvercast.7 mph77%29.73 "Hg40 mi
5:00 AM52 °FOvercast.7 mph77%29.72 "Hg15 mi
4:00 AM52 °FOvercast.7 mph77%29.71 "Hg15 mi
3:00 AM52 °FOvercast.10 mph77%29.70 "Hg15 mi
Weather by CustomWeather, © 2016

See weather overviewHow to use our weather pages